Location: St. Louis
(38.6270°N, 90.1994°W)
Time: 02:24:30
(UTC-06:00)

Transit 4A - Pass Details

Date: 01 December 2021
Orbit: 863 x 981 km, 66.8° (Epoch: 24 January)

Event Time Altitude Azimuth Distance (km) Brightness Sun altitude
Rises 20:31:13 0° 234° (SW) 3,446 11.4 -44.6°
Reaches altitude 10° 20:33:54 10° 244° (WSW) 2,522 10.6 -45.1°
Enters shadow 20:34:18 12° 246° (WSW) 2,394 10.5 -45.2°
Maximum altitude 20:39:08 34° 308° (NW) 1,440 - -46.1°
Drops below altitude 10° 20:44:32 10° 12° (NNE) 2,596 - -47.1°
Sets 20:47:21 0° 22° (NNE) 3,561 - -47.7°
